DUBAISAT-2

Last updated on Thu Oct 30 2025 00:02:31 GMT+0000 (Coordinated Universal Time)

1 39419U 13066D 25302.52364804 .00006990 00000+0 46048-3 0 9994 2 39419 97.4443 294.3191 0013681 102.9270 257.3487 15.07740969651600
UTC large
Height (km)
Speed (km/s)
/
Latitude / Longitude
Inclination (degrees)
Orbital Period (minutes)
Azimuth
Elevation
Range (km)
Doppler Factor

Next 0 passes for location: London (51.5072 / 0.1276)

Sorry there are no passes over London.